Location: Huntsville
(41.2590°N, 111.7678°W)
Time: 23:20:08
(UTC+00:00)

SR - Pass Details

Date: 21 June 2021
Orbit: 577 x 878 km, 66.7° (Epoch: 29 July)

Event Time Altitude Azimuth Distance (km) Brightness Sun altitude
Rises 07:45:30 0° 335° (NNW) 3,296 ? -25.2°
Reaches altitude 10° 07:48:11 10° 343° (NNW) 2,314 ? -25.1°
Maximum altitude 07:53:05 38° 52° (NE) 1,093 ? -25.1°
Enters shadow 07:55:20 25° 102° (ESE) 1,406 ? -25.0°
